TimeEST,TemperatureF,Dew PointF,Humidity,Sea Level PressureIn,VisibilityMPH,Wind Direction,Wind SpeedMPH,Gust SpeedMPH,PrecipitationIn,Events,Conditions,WindDirDegrees,DateUTC
12:04 AM,41.0,39.2,93,30.29,10.0,NE,5.8,-,N/A,,Overcast,50,2012-12-13 05:04:00
12:56 AM,41.0,39.0,93,30.27,10.0,NE,8.1,-,0.00,,Overcast,40,2012-12-13 05:56:00
1:56 AM,41.0,37.9,89,30.28,10.0,NNE,6.9,-,N/A,,Overcast,30,2012-12-13 06:56:00
2:56 AM,41.0,37.9,89,30.30,10.0,North,5.8,-,N/A,,Overcast,10,2012-12-13 07:56:00
3:56 AM,41.0,37.9,89,30.29,10.0,NNE,6.9,-,N/A,,Overcast,30,2012-12-13 08:56:00
4:56 AM,41.0,37.9,89,30.30,10.0,North,4.6,-,N/A,,Overcast,10,2012-12-13 09:56:00
5:56 AM,42.1,37.9,85,30.32,10.0,North,4.6,-,N/A,,Overcast,360,2012-12-13 10:56:00
6:56 AM,43.0,34.0,71,30.34,10.0,NNE,8.1,-,N/A,,Overcast,20,2012-12-13 11:56:00
7:56 AM,43.0,33.1,68,30.36,10.0,NE,10.4,-,N/A,,Overcast,40,2012-12-13 12:56:00
8:12 AM,42.8,32.0,66,30.35,10.0,NNE,11.5,18.4,N/A,,Overcast,30,2012-12-13 13:12:00
9:05 AM,44.6,32.0,61,30.37,10.0,NE,11.5,-,N/A,,Overcast,40,2012-12-13 14:05:00
9:51 AM,44.6,32.0,61,30.38,10.0,NE,12.7,17.3,N/A,,Overcast,40,2012-12-13 14:51:00
9:56 AM,45.0,30.9,58,30.38,10.0,NE,10.4,17.3,N/A,,Overcast,40,2012-12-13 14:56:00
10:56 AM,46.0,32.0,58,30.40,10.0,NE,8.1,18.4,N/A,,Overcast,50,2012-12-13 15:56:00
11:16 AM,46.4,33.8,62,30.39,10.0,ENE,8.1,-,N/A,,Overcast,60,2012-12-13 16:16:00
11:56 AM,46.0,32.0,58,30.39,10.0,ENE,8.1,-,N/A,,Unknown,70,2012-12-13 16:56:00
12:56 PM,48.0,33.1,56,30.36,10.0,NE,5.8,-,N/A,,Overcast,50,2012-12-13 17:56:00
1:56 PM,51.1,33.1,50,30.34,10.0,NNE,6.9,-,N/A,,Clear,30,2012-12-13 18:56:00
2:56 PM,53.1,33.1,47,30.33,10.0,North,8.1,-,N/A,,Clear,360,2012-12-13 19:56:00
3:56 PM,53.1,32.0,45,30.33,10.0,NNE,5.8,-,N/A,,Clear,20,2012-12-13 20:56:00
4:56 PM,51.1,32.0,48,30.34,10.0,NE,3.5,-,N/A,,Clear,40,2012-12-13 21:56:00
7:56 PM,37.0,33.1,86,30.35,10.0,Calm,Calm,-,N/A,,Clear,0,2012-12-14 00:56:00
8:56 PM,35.1,32.0,89,30.36,10.0,Calm,Calm,-,N/A,,Clear,0,2012-12-14 01:56:00
9:56 PM,33.1,30.9,92,30.37,10.0,North,3.5,-,N/A,,Clear,360,2012-12-14 02:56:00
10:56 PM,32.0,30.9,96,30.38,10.0,Calm,Calm,-,N/A,,Clear,0,2012-12-14 03:56:00
11:56 PM,32.0,30.0,92,30.38,10.0,Calm,Calm,-,N/A,,Clear,0,2012-12-14 04:56:00